Rainbow City, AL

10:10 PM CST on February 13, 2016 (GMT -0600)
Gadsden Municipal

Weather History for KGAD - October, 2013

Change the Weather History Date:

Monday, October 7, 2013

  Actual Average Record
Temperature  
Mean Temperature 63 °F -  
Max Temperature 71 °F 74 °F 95 °F (1951)
Min Temperature 55 °F 51 °F 34 °F (1932)
Degree Days  
Heating Degree Days 2    
Growing Degree Days 13 (Base 50)    
Moisture  
Dew Point 50 °F    
Average Humidity 67    
Maximum Humidity 88    
Minimum Humidity 41    
Precipitation  
Precipitation 0.02 in - - ()
Sea Level Pressure  
Sea Level Pressure 29.97 in    
Wind  
Wind Speed 6 mph (North)    
Max Wind Speed 14 mph    
Max Gust Speed 18 mph    
Visibility 10 miles    
Events      
Averages and records for this station are not official NWS values.
T = Trace of Precipitation, MM = Missing Value Source: NWS Daily Summary

Daily Weather History Graph

Daily Weather History Graph

Search for Another Location

Airport or City:

Trip Planner

Search our weather history database for the weather conditions in past years. The results will help you decide how hot, cold, wet, or windy it might be!

Date:

Astronomy

Oct. 07, 2013 Rise Set
Actual Time 6:43 AM CDT 6:20 PM CDT
Civil Twilight 6:18 AM CDT 6:45 PM CDT
Nautical Twilight 5:49 AM CDT 7:14 PM CDT
Astronomical Twilight 5:20 AM CDT 7:43 PM CDT
Moon 9:24 AM CDT (10/7) 8:13 PM CDT (10/7)
Length of Visible Light 12h 26m
Length of Day
11h 36m
Waxing Crescent, 9% of the Moon is Illuminated
Oct 7
Waxing Crescent
Oct 11
First Quarter
Oct 18
Full
Oct 26
Last Quarter
Nov 3
New

Hourly Weather History & Observations

Time (CDT) Temp. Dew Point Humidity Pressure Visibility Wind Dir Wind Speed Gust Speed Precip Events Conditions
12:15 AM 57.2 °F 53.6 °F 88% 29.91 in 10.0 mi North 5.8 mph - N/A   Overcast
12:35 AM 57.2 °F 53.6 °F 88% 29.92 in 10.0 mi North 5.8 mph - N/A   Overcast
12:55 AM 57.2 °F 53.6 °F 88% 29.92 in 10.0 mi NW 4.6 mph - N/A   Overcast
1:15 AM 57.2 °F 53.6 °F 88% 29.92 in 10.0 mi NNW 4.6 mph - N/A   Overcast
1:35 AM 57.2 °F 53.6 °F 88% 29.92 in 10.0 mi NNE 5.8 mph - N/A   Overcast
1:55 AM 57.2 °F 53.6 °F 88% 29.92 in 10.0 mi North 4.6 mph - N/A   Overcast
2:15 AM 57.2 °F 51.8 °F 82% 29.93 in 10.0 mi NNE 3.5 mph - N/A   Overcast
2:35 AM 57.2 °F 53.6 °F 88% 29.93 in 10.0 mi NNE 3.5 mph - N/A   Overcast
2:55 AM 57.2 °F 53.6 °F 88% 29.92 in 10.0 mi North 3.5 mph - 0.01 in   Overcast
3:15 AM 57.2 °F 53.6 °F 88% 29.92 in 10.0 mi Calm Calm - 0.01 in   Overcast
3:35 AM 57.2 °F 53.6 °F 88% 29.92 in 10.0 mi Calm Calm - 0.01 in   Overcast
3:55 AM 57.2 °F 53.6 °F 88% 29.92 in 10.0 mi North 3.5 mph - 0.01 in   Overcast
4:15 AM 57.2 °F 53.6 °F 88% 29.93 in 10.0 mi Calm Calm - N/A   Overcast
4:35 AM 57.2 °F 53.6 °F 88% 29.93 in 10.0 mi Calm Calm - N/A   Overcast
4:55 AM 57.2 °F 51.8 °F 82% 29.92 in 10.0 mi Calm Calm - N/A   Mostly Cloudy
5:15 AM 57.2 °F 53.6 °F 88% 29.93 in 10.0 mi NNW 3.5 mph - N/A   Mostly Cloudy
5:35 AM 57.2 °F 51.8 °F 82% 29.93 in 10.0 mi Calm Calm - N/A   Partly Cloudy
5:55 AM 55.4 °F 51.8 °F 88% 29.93 in 10.0 mi Calm Calm - N/A   Clear
6:15 AM 55.4 °F 51.8 °F 88% 29.94 in 10.0 mi Calm Calm - N/A   Clear
6:35 AM 55.4 °F 51.8 °F 88% 29.94 in 10.0 mi North 3.5 mph - N/A   Clear
6:55 AM 55.4 °F 51.8 °F 88% 29.94 in 10.0 mi NNW 4.6 mph - N/A   Clear
7:15 AM 55.4 °F 51.8 °F 88% 29.95 in 10.0 mi North 4.6 mph - N/A   Clear
7:35 AM 55.4 °F 51.8 °F 88% 29.95 in 10.0 mi NNW 6.9 mph - N/A   Clear
7:55 AM 57.2 °F 51.8 °F 82% 29.96 in 10.0 mi North 9.2 mph - N/A   Clear
8:15 AM 57.2 °F 51.8 °F 82% 29.97 in 10.0 mi North 9.2 mph - N/A   Clear
8:35 AM 57.2 °F 51.8 °F 82% 29.98 in 10.0 mi North 8.1 mph - N/A   Clear
8:55 AM 60.8 °F 51.8 °F 72% 29.98 in 10.0 mi North 9.2 mph - N/A   Clear
9:15 AM 60.8 °F 51.8 °F 72% 29.99 in 10.0 mi North 11.5 mph - N/A   Clear
9:35 AM 62.6 °F 51.8 °F 68% 30.00 in 10.0 mi NNE 11.5 mph - N/A   Partly Cloudy
9:55 AM 62.6 °F 51.8 °F 68% 30.00 in 10.0 mi NNE 12.7 mph - N/A   Partly Cloudy
10:15 AM 62.6 °F 50.0 °F 63% 29.99 in 10.0 mi North 10.4 mph - N/A   Partly Cloudy
10:35 AM 64.4 °F 50.0 °F 59% 29.99 in 10.0 mi North 11.5 mph 18.4 mph N/A   Clear
10:55 AM 64.4 °F 50.0 °F 59% 29.99 in 10.0 mi North 9.2 mph - N/A   Clear
11:15 AM 64.4 °F 48.2 °F 56% 29.99 in 10.0 mi North 6.9 mph - N/A   Clear
11:35 AM 66.2 °F 48.2 °F 52% 29.99 in 10.0 mi NNW 9.2 mph - N/A   Clear
11:55 AM 68.0 °F 50.0 °F 52% 29.98 in 9.0 mi NNE 8.1 mph - N/A   Clear
12:15 PM 69.8 °F 48.2 °F 46% 29.98 in 10.0 mi NNE 10.4 mph - N/A   Clear
12:35 PM 69.8 °F 48.2 °F 46% 29.97 in 10.0 mi NE 10.4 mph - N/A   Clear
12:55 PM 69.8 °F 48.2 °F 46% 29.97 in 10.0 mi North 9.2 mph - N/A   Clear
1:15 PM 69.8 °F 48.2 °F 46% 29.97 in 10.0 mi NNW 13.8 mph - N/A   Clear
1:35 PM 69.8 °F 48.2 °F 46% 29.96 in 10.0 mi North 12.7 mph 16.1 mph N/A   Clear
1:55 PM 69.8 °F 46.4 °F 43% 29.96 in 10.0 mi NNW 12.7 mph 16.1 mph N/A   Clear
2:15 PM 71.6 °F 48.2 °F 43% 29.96 in 10.0 mi NNW 9.2 mph 16.1 mph N/A   Clear
2:35 PM 71.6 °F 48.2 °F 43% 29.96 in 10.0 mi North 9.2 mph - N/A   Clear
2:55 PM 71.6 °F 48.2 °F 43% 29.95 in 10.0 mi NNW 9.2 mph 17.3 mph N/A   Clear
3:15 PM 71.6 °F 48.2 °F 43% 29.95 in 10.0 mi NNW 6.9 mph - N/A   Clear
3:35 PM 71.6 °F 48.2 °F 43% 29.95 in 10.0 mi North 4.6 mph - N/A   Clear
3:55 PM 71.6 °F 48.2 °F 43% 29.95 in 10.0 mi NNW 8.1 mph - N/A   Clear
4:15 PM 71.6 °F 46.4 °F 41% 29.95 in 10.0 mi NNE 13.8 mph 18.4 mph N/A   Clear
4:35 PM 71.6 °F 46.4 °F 41% 29.95 in 10.0 mi North 10.4 mph - N/A   Clear
4:55 PM 71.6 °F 46.4 °F 41% 29.95 in 10.0 mi North 11.5 mph - N/A   Clear
5:15 PM 69.8 °F 46.4 °F 43% 29.96 in 10.0 mi North 10.4 mph - N/A   Clear
5:35 PM 69.8 °F 46.4 °F 43% 29.96 in 10.0 mi North 11.5 mph - N/A   Clear
5:55 PM 66.2 °F 46.4 °F 49% 29.96 in 10.0 mi North 6.9 mph - N/A   Clear
6:15 PM 64.4 °F 46.4 °F 52% 29.97 in 10.0 mi North 8.1 mph - N/A   Clear
6:35 PM 62.6 °F 46.4 °F 55% 29.97 in 10.0 mi North 5.8 mph - N/A   Clear
6:55 PM 62.6 °F 48.2 °F 59% 29.98 in 10.0 mi NNW 4.6 mph - N/A   Clear
7:15 PM 60.8 °F 48.2 °F 63% 29.99 in 10.0 mi NNW 6.9 mph - N/A   Clear
7:35 PM 60.8 °F 48.2 °F 63% 30.00 in 10.0 mi North 5.8 mph - N/A   Clear
7:55 PM 60.8 °F 48.2 °F 63% 30.00 in 10.0 mi North 4.6 mph - N/A   Clear
8:15 PM 59.0 °F 46.4 °F 63% 30.01 in 10.0 mi North 5.8 mph - N/A   Clear
8:35 PM 59.0 °F 46.4 °F 63% 30.02 in 10.0 mi North 6.9 mph - N/A   Clear
8:55 PM 59.0 °F 46.4 °F 63% 30.02 in 10.0 mi North 6.9 mph - N/A   Clear
9:15 PM 59.0 °F 46.4 °F 63% 30.02 in 10.0 mi NNW 8.1 mph - N/A   Clear
9:35 PM 59.0 °F 46.4 °F 63% 30.03 in 10.0 mi North 6.9 mph - N/A   Clear
9:55 PM 57.2 °F 46.4 °F 67% 30.03 in 10.0 mi North 10.4 mph - N/A   Clear
10:15 PM 57.2 °F 46.4 °F 67% 30.03 in 10.0 mi North 9.2 mph - N/A   Clear
10:35 PM 57.2 °F 46.4 °F 67% 30.03 in 10.0 mi North 8.1 mph - N/A   Clear
10:55 PM 57.2 °F 46.4 °F 67% 30.03 in 10.0 mi North 8.1 mph - N/A   Clear
11:15 PM 57.2 °F 46.4 °F 67% 30.03 in 10.0 mi North 9.2 mph - N/A   Clear
11:35 PM 55.4 °F 46.4 °F 72% 30.02 in 10.0 mi North 8.1 mph - N/A   Clear
11:55 PM 55.4 °F 46.4 °F 72% 30.02 in 10.0 mi North 9.2 mph - N/A   Clear